Weather in Nepa

Russia / Irkutsk Oblast     59°14′34″N   108°13′53″E
temp.,
°C
wind,
m/s
gust,
m/s
humid.,
%
clouds,
%
prec.,
mm/h
press.,
hPa
HPBL,
m
27 january, wed
wed2723:00−35n2298100 0.0 104323
02:00−37nnw2298100 0.0 104319
05:00−38n229996 0.0 104420
08:00−38nnw129898 0.0 104618
11:00−35nnw1198100 0.0 104576
14:00−32n1291100 0.0 1043267
17:00−36ne119992 0.0 104319
20:00−38ese119959 0.0 104219
28 january, thu
thu2823:00−39ese111002 0.0 103918
02:00−39ese1110016 0.0 103718
05:00−39ese129986 0.0 103418
08:00−39ese129893 0.0 103120
11:00−36ese1296100 0.0 1028110
14:00−31e259399 0.0 1025267
17:00−33e239599 0.0 102462
20:00−34ene2394100 0.0 102576
29 january, fri
fri2923:00−36ne2292100 0.0 102535
02:00−39nne229373 0.0 102719
05:00−41n23984 0.0 103029
08:00−42n229827 0.0 103329
11:00−39n239655 0.0 1034130
14:00−35n239362 0.0 1034295
17:00−38n229778 0.0 103419
20:00−40ne129663 0.0 103618
30 january, sat
sat3023:00−41nne229738 0.0 103618
02:00−42n229739 0.0 103718
05:00−43nne229755 0.0 103818
08:00−43nne229764 0.0 103818
11:00−40n129667 0.0 1038115
14:00−36nne239075 0.0 1036335
17:00−39n229670 0.0 103722
20:00−41n229765 0.0 103818
31 january, sun
sun3123:00−39nnw239893 0.0 1038128
02:00−38nnw249797 0.1 1038229
05:00−39nw2298100 0.1 103978
08:00−39wnw1298100 0.1 104156
11:00−38wnw2595100 0.0 1042273
14:00−35wnw2494100 0.1 1041334
17:00−37w2297100 0.0 104219
20:00−39w119999 0.0 104318